Tracking 29892 objects as of 21-Nov-2024
HD Live streaming from Space Station
objects crossing your sky now

CZ-6A DEB

Track CZ-6A DEB now!
10-day predictions


NORAD ID: 56266
Int'l Code: 2022-151ACJ
Perigee: 836.4 km
Apogee: 1,010.9 km
Inclination: 98.9 °
Period: 103.3 minutes
Semi major axis: 7294 km
RCS: Unknown
Launch date: November 11, 2022
Source: People's Republic of China (PRC)
Launch site: Taiyaun Space Center, China (TSC)

Note: This is SATELLITE DEBRIS
Your satellite tracking list
Your tracking list is empty




NASA's NSSDC Master Catalog

Two Line Element Set (TLE):
1 56266U 22151ACJ 24325.91277290  .00000244  00000-0  20647-3 0  9991
2 56266  98.8852 309.7660 0119638 209.6532 149.7810 13.93467643 85170
Source of the keplerian elements: AFSPC